KF7OVD-WX Weather Reports


Display with metric or nautical units.
time (UTC)temp
F
wind
direction
speed
MPH
gust
MPH
rain 1hr
in
rain 24hr
in
rain mn
in
humidity
%
barometer
mb
20260505091022 47 203 3.0 5.0 0.00 0.01 0.00 53 1014.9
20260505090520 47 174 2.0 4.0 0.00 0.01 0.00 53 1014.9
20260505090018 47 228 3.0 4.0 0.00 0.01 0.00 53 1014.9
20260505085516 47 241 2.0 3.0 0.00 0.01 0.00 53 1015.0
20260505085015 48 199 2.0 3.0 0.00 0.01 0.00 52 1015.0
20260505084530 48 262 2.0 3.0 0.00 0.01 0.00 52 1015.1
20260505084028 48 221 2.0 5.0 0.00 0.01 0.00 52 1015.1
20260505083526 48 289 2.0 4.0 0.00 0.01 0.00 52 1015.1
20260505083024 48 183 3.0 4.0 0.00 0.01 0.00 52 1015.1
20260505082522 48 214 4.0 6.0 0.00 0.01 0.00 52 1015.1
20260505082021 48 221 3.0 3.0 0.00 0.01 0.00 52 1015.2
20260505081519 48 228 3.0 4.0 0.00 0.01 0.00 52 1015.2
20260505081017 48 162 3.0 4.0 0.00 0.01 0.00 52 1015.3
20260505080515 48 245 3.0 5.0 0.00 0.01 0.00 52 1015.3
20260505080019 48 224 2.0 3.0 0.00 0.01 0.00 51 1015.4
20260505075517 48 211 3.0 5.0 0.00 0.01 0.00 51 1015.5
20260505075016 48 213 4.0 6.0 0.00 0.01 0.00 51 1015.4
20260505074532 49 252 3.0 4.0 0.00 0.01 0.00 50 1015.3
20260505074030 49 204 2.0 3.0 0.00 0.01 0.00 50 1015.3
20260505073528 49 259 3.0 5.0 0.00 0.01 0.00 49 1015.2
20260505073027 49 206 2.0 4.0 0.00 0.01 0.00 49 1015.2
20260505072525 49 212 5.0 7.0 0.00 0.01 0.00 48 1015.2
20260505072023 49 251 2.0 4.0 0.00 0.01 0.00 48 1015.2
20260505071521 49 157 3.0 8.0 0.00 0.01 0.00 48 1015.2
20260505071019 49 225 1.0 3.0 0.00 0.01 0.00 47 1015.2
20260505070518 49 220 4.0 6.0 0.00 0.01 0.00 47 1015.2
20260505070136 49 173 2.0 5.0 0.00 0.01 0.00 46 1015.0
20260505065532 50 225 5.0 8.0 0.00 0.01 0.00 46 1015.0
20260505065050 50 210 5.0 7.0 0.00 0.01 0.00 46 1015.0
20260505064528 49 240 5.0 7.0 0.00 0.01 0.00 46 1015.1
20260505064026 50 188 3.0 4.0 0.00 0.01 0.00 46 1015.1
20260505063545 50 260 4.0 5.0 0.00 0.01 0.00 46 1015.0
20260505063023 50 202 3.0 5.0 0.00 0.01 0.00 45 1015.0
20260505062521 50 249 4.0 5.0 0.00 0.01 0.00 45 1014.9
20260505062020 50 244 3.0 5.0 0.00 0.01 0.00 45 1014.9
20260505061518 50 234 4.0 5.0 0.00 0.01 0.00 45 1014.9
20260505061016 50 240 5.0 6.0 0.00 0.01 0.00 45 1014.7
20260505060612 50 213 5.0 7.0 0.00 0.01 0.00 45 1014.7
20260505060030 50 245 4.0 7.0 0.00 0.01 0.00 45 1014.8
20260505055527 50 233 5.0 6.0 0.00 0.01 0.01 45 1014.9
20260505055024 50 221 3.0 4.0 0.00 0.01 0.01 45 1014.9
20260505054542 51 215 4.0 5.0 0.00 0.01 0.01 44 1015.0
20260505054059 51 288 4.0 5.0 0.00 0.01 0.01 44 1015.0
20260505053517 51 213 4.0 7.0 0.00 0.01 0.01 44 1015.0
20260505053021 51 227 4.0 6.0 0.00 0.01 0.01 44 1015.0
20260505052518 51 226 5.0 7.0 0.00 0.01 0.01 44 1015.0
20260505052014 51 225 4.0 6.0 0.00 0.01 0.01 44 1015.1
20260505051530 51 203 5.0 7.0 0.00 0.01 0.01 44 1015.1
20260505051027 51 161 4.0 6.0 0.00 0.01 0.01 45 1015.2
20260505050524 51 204 3.0 6.0 0.00 0.01 0.01 46 1015.2
20260505041519 50 0.0 0.0 0.00 0.01 0.01 45 1015.0
20260505041016 51 0.0 0.0 0.00 0.01 0.01 44 1014.7
20260505040531 51 256 1.0 1.0 0.00 0.01 0.01 43 1014.7
20260505040028 51 229 1.0 2.0 0.00 0.01 0.01 43 1014.6
20260505035526 52 217 2.0 4.0 0.00 0.01 0.01 43 1014.5
20260505035043 52 199 3.0 4.0 0.00 0.01 0.01 43 1014.5
20260505034521 51 232 3.0 4.0 0.00 0.01 0.01 43 1014.5
20260505034018 51 293 0.0 1.0 0.00 0.01 0.01 42 1014.5
20260505033535 52 203 1.0 2.0 0.00 0.01 0.01 41 1014.4
20260505033039 52 205 3.0 5.0 0.00 0.01 0.01 40 1014.4
20260505032517 53 199 2.0 3.0 0.00 0.01 0.01 39 1014.5
20260505032033 53 232 2.0 4.0 0.00 0.01 0.01 38 1014.5
20260505031529 54 220 3.0 5.0 0.00 0.01 0.01 37 1014.5
20260505031027 54 206 2.0 3.0 0.00 0.01 0.01 36 1014.3
20260505030544 54 232 3.0 4.0 0.00 0.01 0.01 36 1014.3
20260505030021 55 215 3.0 5.0 0.00 0.01 0.01 35 1014.3
20260505025520 55 224 4.0 6.0 0.00 0.01 0.01 35 1014.3
20260505025018 55 236 3.0 4.0 0.00 0.01 0.01 35 1014.3
20260505024516 55 233 3.0 5.0 0.00 0.01 0.01 34 1014.2
20260505024032 56 235 4.0 5.0 0.00 0.01 0.01 34 1014.2
20260505023529 56 222 4.0 8.0 0.00 0.01 0.01 33 1013.9
20260505023026 56 202 4.0 6.0 0.00 0.02 0.01 33 1013.9
20260505022544 57 227 5.0 5.0 0.00 0.02 0.01 33 1013.9
20260505022021 57 244 5.0 7.0 0.00 0.02 0.01 32 1013.8
20260505021519 58 215 5.0 6.0 0.00 0.02 0.01 32 1013.8
20260505021017 58 220 5.0 7.0 0.00 0.02 0.01 31 1013.7
20260505020532 58 232 6.0 9.0 0.00 0.02 0.01 30 1013.7
20260505020030 59 240 5.0 6.0 0.00 0.02 0.01 30 1013.7
20260505015547 60 229 7.0 10.0 0.00 0.02 0.01 30 1013.7
20260505015025 60 241 4.0 5.0 0.00 0.02 0.01 30 1013.7
20260505014521 61 211 5.0 7.0 0.00 0.02 0.01 29 1013.7
20260505014020 61 250 6.0 8.0 0.00 0.02 0.01 29 1013.7
20260505013518 62 231 6.0 7.0 0.00 0.02 0.01 29 1013.7
20260505013016 62 238 7.0 11.0 0.00 0.02 0.01 28 1013.7
20260505012519 63 239 6.0 8.0 0.00 0.02 0.01 28 1013.7
20260505012017 63 223 7.0 9.0 0.00 0.02 0.01 27 1013.7
20260505011532 64 186 7.0 8.0 0.00 0.02 0.01 26 1013.7
20260505011050 65 271 6.0 9.0 0.00 0.02 0.01 27 1013.4
20260505010528 65 236 4.0 6.0 0.00 0.02 0.01 27 1013.4
20260505010025 65 200 6.0 7.0 0.00 0.02 0.01 29 1013.7
20260505005523 64 227 8.0 11.0 0.00 0.02 0.01 29 1013.7
20260505005020 65 246 7.0 8.0 0.00 0.02 0.01 30 1013.7
20260505004518 65 207 6.0 8.0 0.00 0.02 0.01 31 1013.6
20260505004015 65 235 7.0 8.0 0.00 0.02 0.01 32 1013.6
20260505003537 64 127 6.0 8.0 0.00 0.02 0.01 33 1013.7
20260505003029 65 187 6.0 9.0 0.00 0.02 0.01 34 1013.7
20260505002527 65 209 7.0 10.0 0.00 0.02 0.01 34 1013.7
20260505002050 66 200 6.0 9.0 0.00 0.02 0.01 34 1013.7
20260505001522 66 210 7.0 10.0 0.00 0.02 0.01 33 1013.7
20260505001020 67 203 6.0 7.0 0.00 0.02 0.01 32 1013.7
20260505000518 68 256 5.0 9.0 0.00 0.02 0.01 32 1013.7
20260505000015 66 220 6.0 9.0 0.00 0.02 0.01 31 1013.5
20260504235530 67 240 7.0 12.0 0.00 0.02 0.01 32 1013.4
20260504235027 67 224 7.0 8.0 0.00 0.02 0.01 34 1013.4
20260504234525 66 220 8.0 9.0 0.00 0.02 0.01 35 1013.4
20260504234043 64 270 7.0 11.0 0.00 0.02 0.01 36 1013.4
20260504233520 64 218 6.0 7.0 0.00 0.02 0.01 36 1013.6
20260504233018 66 258 6.0 9.0 0.00 0.02 0.01 36 1013.6
20260504232515 66 273 7.0 9.0 0.00 0.02 0.01 36 1013.6
20260504232030 65 238 7.0 9.0 0.00 0.02 0.01 36 1013.8
20260504231516 65 280 6.0 9.0 0.00 0.02 0.01 37 1013.8
20260504231032 64 285 7.0 10.0 0.00 0.02 0.01 37 1013.7
20260504230530 64 221 6.0 9.0 0.00 0.02 0.01 37 1013.7
20260504230028 65 227 8.0 9.0 0.00 0.02 0.01 36 1013.6
20260504225526 66 265 5.0 7.0 0.00 0.02 0.01 35 1013.6
20260504225044 66 253 6.0 11.0 0.00 0.02 0.01 35 1013.6
20260504224542 66 210 6.0 8.0 0.00 0.02 0.01 35 1013.7
20260504224019 65 176 5.0 6.0 0.00 0.02 0.01 35 1013.7
20260504223516 66 203 7.0 9.0 0.00 0.02 0.01 34 1013.8
20260504223032 67 240 6.0 8.0 0.00 0.02 0.01 34 1013.8
20260504222530 67 204 6.0 8.0 0.00 0.02 0.01 33 1013.8
20260504222027 67 259 5.0 9.0 0.00 0.02 0.01 33 1013.8
20260504221524 68 231 7.0 9.0 0.00 0.02 0.01 32 1013.8
20260504221023 68 189 7.0 11.0 0.00 0.02 0.01 32 1014.0
20260504220521 68 153 5.0 7.0 0.00 0.02 0.01 33 1014.0
20260504220018 68 167 7.0 11.0 0.00 0.02 0.01 33 1014.0
20260504215516 68 231 5.0 9.0 0.00 0.02 0.01 33 1014.0
20260504215031 70 261 8.0 11.0 0.00 0.02 0.01 31 1014.0
20260504214528 70 213 6.0 9.0 0.00 0.02 0.01 32 1014.4
20260504214026 68 191 4.0 5.0 0.00 0.02 0.01 33 1014.4
20260504213524 68 233 8.0 12.0 0.00 0.02 0.01 33 1014.3
20260504213021 68 260 5.0 9.0 0.00 0.02 0.01 34 1014.3
20260504212519 68 228 5.0 7.0 0.00 0.02 0.01 34 1014.3
20260504212016 68 249 5.0 7.0 0.00 0.02 0.01 34 1014.4
20260504211520 68 217 5.0 7.0 0.00 0.02 0.01 35 1014.4
20260504211018 67 240 4.0 6.0 0.00 0.02 0.01 36 1014.5
20260504210516 67 141 8.0 10.0 0.00 0.02 0.01 36 1014.5
20260504210052 67 235 4.0 6.0 0.00 0.02 0.01 37 1014.4
20260504205530 67 215 7.0 9.0 0.00 0.02 0.01 37 1014.4
20260504205028 67 226 7.0 10.0 0.00 0.02 0.01 37 1014.4
20260504204525 67 229 7.0 12.0 0.00 0.02 0.01 37 1014.5
20260504204023 67 270 8.0 10.0 0.00 0.02 0.01 37 1014.5
20260504203521 67 198 7.0 8.0 0.00 0.02 0.01 38 1014.5
20260504203019 66 228 5.0 8.0 0.00 0.02 0.01 39 1014.5
20260504202516 66 205 5.0 7.0 0.00 0.02 0.01 39 1014.6
20260504202032 66 122 6.0 10.0 0.00 0.02 0.01 39 1014.6
20260504201530 66 185 5.0 6.0 0.00 0.02 0.01 39 1014.6
20260504201028 66 188 6.0 11.0 0.00 0.02 0.01 39 1014.4
20260504200526 67 247 5.0 8.0 0.00 0.02 0.01 40 1014.4
20260504200103 69 277 5.0 8.0 0.00 0.02 0.01 38 1014.6
20260504195521 69 216 4.0 6.0 0.00 0.02 0.01 38 1014.6
20260504195019 67 180 4.0 6.0 0.00 0.02 0.01 40 1014.6
20260504194517 66 237 4.0 5.0 0.00 0.02 0.01 40 1014.6
20260504194052 67 197 6.0 10.0 0.00 0.02 0.01 40 1014.6
20260504193529 66 197 4.0 6.0 0.00 0.02 0.01 39 1014.6
20260504193047 66 141 4.0 8.0 0.00 0.02 0.01 37 1014.6
20260504192524 68 145 6.0 9.0 0.00 0.02 0.01 36 1014.7
20260504192042 70 149 6.0 8.0 0.00 0.02 0.01 35 1014.9
20260504191520 70 220 5.0 6.0 0.00 0.02 0.01 32 1014.9
20260504191018 70 195 5.0 8.0 0.00 0.02 0.01 33 1015.0
20260504190536 69 147 5.0 8.0 0.00 0.02 0.01 36 1015.0
20260504190020 67 216 4.0 6.0 0.00 0.02 0.01 40 1015.1
20260504185518 68 194 6.0 8.0 0.00 0.02 0.01 39 1015.1
20260504185016 69 202 5.0 6.0 0.00 0.02 0.01 39 1015.2
20260504184532 69 211 5.0 7.0 0.00 0.02 0.01 39 1015.3
20260504184110 70 127 7.0 10.0 0.00 0.02 0.01 38 1015.3
20260504183527 70 215 7.0 10.0 0.00 0.02 0.01 39 1015.2
20260504183025 69 235 5.0 7.0 0.00 0.02 0.01 39 1015.2
20260504182523 70 257 5.0 6.0 0.00 0.02 0.01 39 1015.3
20260504182021 69 248 5.0 8.0 0.00 0.02 0.01 41 1015.3
20260504181538 68 217 6.0 7.0 0.00 0.02 0.01 42 1015.3
20260504181016 68 242 5.0 7.0 0.00 0.02 0.01 42 1015.7
20260504180532 69 226 5.0 6.0 0.00 0.02 0.01 41 1015.7
20260504180030 69 235 5.0 8.0 0.00 0.02 0.01 42 1015.6
20260504175528 69 186 6.0 10.0 0.00 0.02 0.01 40 1015.5
20260504175026 70 139 5.0 6.0 0.00 0.02 0.01 41 1015.5
20260504174524 68 162 5.0 6.0 0.00 0.02 0.01 42 1015.5
20260504174041 69 170 5.0 7.0 0.00 0.02 0.01 42 1015.5
20260504173559 68 142 6.0 7.0 0.00 0.02 0.01 41 1015.5
20260504173017 69 225 6.0 7.0 0.00 0.02 0.01 42 1015.5
20260504172515 69 203 6.0 10.0 0.00 0.02 0.01 42 1015.5
20260504172030 69 161 6.0 8.0 0.00 0.02 0.01 42 1015.5
20260504171528 68 209 5.0 7.0 0.00 0.02 0.01 43 1015.5
20260504171026 69 249 4.0 6.0 0.00 0.02 0.01 43 1015.7
20260504170524 68 201 7.0 10.0 0.00 0.02 0.01 44 1015.7
20260504151018 59 60 3.0 4.0 0.01 0.02 0.01 59 1016.1
20260504150556 59 83 3.0 4.0 0.01 0.02 0.01 61 1016.1
20260504141057 46 0.0 0.0 0.00 0.01 0.00 87 1016.3
20260504140533 45 0.0 0.0 0.00 0.01 0.00 89 1016.3
20260504130526 41 0.0 0.0 0.00 0.01 0.00 90 1015.8
20260504110521 43 0.0 0.0 0.00 0.01 0.00 85 1015.8
20260504100530 45 0.0 0.0 0.00 0.01 0.00 82 1015.8